CHECKMATE 8

导读

CHECKMATE 8是美国于2023年4月2日北京时间8时发射的人造卫星,目前公开资料中关于其具体任务属性披露有限。结合名称“CHECKMATE”(将死,象棋术语)推测,该卫星可能隶属于美国军方航天项目,潜在承担空间态势感知、侦察监视或战术通信等任务,进一步强化美国在近地轨道的部署能力,是美国近年加快航天基础设施建设的组成部分。

Basic Information
目录编号:
56162
目录名称:
CHECKMATE 8
国际标识:
2023-050A
轨道中心:
EARTH
卫星名称:
CHECKMATE 8
卫星全名:
--
卫星状态:
在轨 (已飞行1172 天)
发射日期:
2023-04-02 UTC
国别 :
美国 (US)
星等 :
--
Orbit Information
数据来源 国际轨道数据 AOE轨道数据
星历时间 2026-06-17T10:01:09+0800
14小时前
查看轨道信息
2026-06-17T02:00:00+0800
22小时前
查看轨道信息
半长轴 7324.489km 7324.476km
偏心率 0.0006182 0.0007175
轨道倾角 81.002° 81.000°
近地点辐角 331.405° 339.336°
升交点赤经 71.870° 72.189°
平近点角 28.677° 155.755°
近地点 941.824km 941.083km
远地点 950.88km 951.595km
周期 103.974分钟 103.974分钟
每日圈数 13.849587 13.849624
Detailed Information
使用方式:
暂无
2D Orbit Map
3D Orbit Map
Orbit Altitude Analysis Chart
Orbit Inclination Analysis Chart
Orbit Comprehensive Analysis Chart
View Comprehensive Chart